User: anonymous   Login
Location: Niedergestelen
(46.3129°N, 7.7822°E)
Time: 07:59:11
(UTC+00:00)
Language:

deb Kosmos-1275 - Orbit

View from above orbital plane
View from above orbital plane
View from above satellite
View from above satellite

Ground track
Ground track

The orbit data is extracted from the following two-line orbital elements,

1 12713U 81053BH  21166.68615038  .00000634  00000-0  30263-3 0  9994
2 12713  82.9521  57.0237 0018761 277.6859  82.2190 14.17738275 30992
Epoch (UTC): 15 June 2021 16:28:03
Eccentricity: 0.0018761
inclination: 82.9521°
perigee height: 819 km
apogee height: 846 km
right ascension of ascending node: 57.0237°
argument of perigee: 277.6859°
revolutions per day: 14.17738275
mean anomaly at epoch: 82.2190°
orbit number at epoch: 3099

The dashed part of the orbit path shows where the satellite is in the earth's shadow,  

DLR